This demonstration page uses our WeatherBlox Daily Observations layout. Learn more.

Left ArrowRight Arrow

41.86663, -103.66717

Hourly Observations for April 2, 2016

Temp ( °F °C ) Dew Point ( °F °C ) Humidity (%) Winds ( mph kmh ) Pressure ( in mb ) Visibility ( mi km ) Precip ( " mm )
12:53 am 00:53 Cloudy 34 1.1 29 -1.7 82 82 W 5 7 30.15 1021 10 16 N/A
1:53 am 01:53 Mostly Cloudy 37 2.8 29 -1.7 73 73 WNW 9 15 30.13 1020 10 16 N/A
2:53 am 02:53 Clear 37 2.8 29 -1.7 73 73 WNW 10 17 30.12 1020 10 16 N/A
3:53 am 03:53 Clear 34 1.1 29 -1.7 82 82 NW 12 19 30.14 1021 10 16 N/A
4:53 am 04:53 Clear 32 undefined 28 -2.2 85 85 NW 6 9 30.16 1021 10 16 N/A
5:53 am 05:53 Clear 32 undefined 28 -2.2 85 85 NW 9 15 30.17 1022 10 16 N/A
6:53 am 06:53 Sunny 33 0.6 28 -2.2 82 82 NW 6 9 30.19 1022 10 16 N/A
7:53 am 07:53 Sunny 38 3.3 30 -1.1 73 73 NW 8 13 30.21 1023 10 16 N/A
8:53 am 08:53 Sunny 45 7.2 31 -0.6 58 58 WNW 12 19 30.19 1022 10 16 N/A
9:53 am 09:53 Sunny 50 10 31 -0.6 48 48 WNW 14 22 30.19 1022 10 16 N/A
10:53 am 10:53 Sunny 55 12.8 32 undefined 42 42 WNW 13 20 30.16 1021 10 16 N/A
11:53 am 11:53 Sunny 59 15 31 -0.6 35 35 W 17 28 30.13 1020 10 16 N/A
12:53 pm 12:53 Sunny 61 16.1 31 -0.6 32 32 W 20 31 30.11 1020 10 16 N/A
1:53 pm 13:53 Sunny 63 17.2 32 undefined 31 31 W 22 35 30.08 1019 10 16 N/A
2:53 pm 14:53 Sunny 64 17.8 29 -1.7 27 27 W 20 31 30.05 1018 10 16 N/A
3:53 pm 15:53 Sunny 63 17.2 28 -2.2 27 27 W 18 30 30.04 1017 10 16 N/A
4:53 pm 16:53 Sunny 62 16.7 28 -2.2 28 28 W 22 35 30.03 1017 10 16 N/A
5:53 pm 17:53 Sunny 61 16.1 28 -2.2 29 29 W 18 30 30.01 1016 10 16 N/A
6:53 pm 18:53 Sunny 57 13.9 30 -1.1 36 36 W 9 15 30.02 1017 10 16 N/A
7:53 pm 19:53 Clear 50 10 32 undefined 50 50 WSW 9 15 30.01 1016 10 16 N/A
8:53 pm 20:53 Clear 49 9.4 32 undefined 52 52 WNW 9 15 29.99 1016 10 16 N/A
9:53 pm 21:53 Clear 42 5.6 31 -0.6 65 65 NW 6 9 30.00 1016 10 16 N/A
10:53 pm 22:53 Clear 43 6.1 30 -1.1 60 60 NW 8 13 29.97 1015 10 16 N/A
11:53 pm 23:53 Clear 53 11.7 27 -2.8 37 37 W 13 20 29.91 1013 10 16 N/A

Powered by AerisWeather